Flag for Russia Weather past 2 weeks in Kemerovo, Russia

Now
54 °F

Sunny.


Feels Like: 52 °F
Forecast: 54 / 85 °F
Wind: 6 mph from Southeast

Location: Kemerovo

Current Time: Sep 2, 2015 at 7:50:17 AM

Latest Report: Sep 2, 2015 at 7:30 AM


Visibility: 10 mi

Pressure: 29.83 "Hg

Humidity: 88%

Dew point: 50 °F

Location of KemerovoLocation

Historic Weather in Kemerovo — Graph

°F

Kemerovo temperature yesterday

Maximum temperature yesterday: 81 °F (at 2:30 PM)
Minimum temperature yesterday: 54 °F (at 6:30 AM)
Average temperature yesterday: 69 °F

Past Weeks' High & Low Weather Summary

 TemperatureHumidityPressure
High86 °F (Aug 20, 2:00 PM)94% (Aug 23, 4:30 AM)30.18 "Hg (Aug 23, 4:30 AM)
Low43 °F (Aug 28, 6:00 AM)24% (Sep 1, 5:00 PM)29.36 "Hg (Aug 21, 10:30 AM)
Average62 °F66%29.86 "Hg
* Reported Aug 18 7:00 AM — Sep 2 7:00 AM, Kemerovo, Weather by CustomWeather, © 2015

Note: Actual official high and low records may vary slightly from our data, if they occured in-between our weather recording intervals... More about our weather records

Advertising

Kemerovo weather history for previous 24 hours

 ConditionsComfort  
Time TempWeatherWind HumidityBarometerVisibility
7:00 AM
Wed, Sep 2
54 °FClear.6 mph82%29.83 "Hg10 mi
6:30 AM54 °FClear.6 mph82%29.83 "Hg10 mi
6:00 AM54 °FClear.8 mph82%29.83 "Hg10 mi
5:30 AM54 °FClear.6 mph82%29.83 "Hg10 mi
4:30 AM54 °FClear.6 mph82%29.83 "Hg10 mi
4:00 AM55 °FClear.3 mph77%29.83 "Hg10 mi
3:30 AM57 °FClear.3 mph72%29.83 "Hg10 mi
3:00 AM59 °FClear.1 mph72%29.83 "Hg10 mi
2:30 AM61 °FClear.6 mph63%29.83 "Hg10 mi
2:00 AM61 °FClear.6 mph68%29.83 "Hg10 mi
1:30 AM64 °FClear.6 mph60%29.83 "Hg10 mi
1:00 AM64 °FClear.6 mph60%29.83 "Hg10 mi
12:30 AM66 °FClear.3 mph52%29.83 "Hg10 mi
12:00 AM66 °FClear.3 mph52%29.83 "Hg10 mi
11:30 PM
Tue, Sep 1
66 °FClear.3 mph52%29.83 "Hg10 mi
11:00 PM68 °FClear.3 mph46%29.83 "Hg10 mi
10:30 PM68 °FClear.6 mph46%29.83 "Hg10 mi
10:00 PM72 °FClear.3 mph36%29.83 "Hg10 mi
9:30 PM72 °FClear.1 mph33%29.83 "Hg10 mi
9:00 PM75 °FSunny.1 mph31%29.86 "Hg10 mi
8:30 PM75 °FSunny.1 mph29%29.86 "Hg10 mi
8:00 PM75 °FSunny.1 mph31%29.86 "Hg10 mi
7:30 PM79 °FSunny.1 mph32%29.86 "Hg10 mi
7:00 PM79 °FSunny.1 mph32%29.86 "Hg10 mi
6:30 PM79 °FSunny.3 mph32%29.86 "Hg10 mi
6:00 PM81 °FSunny.3 mph28%29.86 "Hg10 mi
5:30 PM81 °FSunny.3 mph24%29.86 "Hg10 mi
5:00 PM81 °FSunny.6 mph24%29.86 "Hg10 mi
4:30 PM81 °FSunny.6 mph28%29.86 "Hg10 mi
4:00 PM81 °FPassing clouds.6 mph28%29.86 "HgN/A
3:30 PM81 °FSunny.6 mph30%29.86 "Hg10 mi
3:00 PM81 °FPassing clouds.6 mph30%29.86 "HgN/A
2:30 PM81 °FPassing clouds.6 mph32%29.89 "HgN/A
2:00 PM79 °FPassing clouds.3 mph34%29.89 "HgN/A
1:30 PM77 °FPassing clouds.3 mph32%29.89 "HgN/A
1:00 PM77 °FSunny.3 mph34%29.92 "Hg10 mi
12:30 PM75 °FPassing clouds.3 mph36%29.92 "HgN/A
12:00 PM73 °FPassing clouds.3 mph44%29.92 "HgN/A
11:30 AM72 °FPassing clouds.3 mph50%29.92 "HgN/A
10:30 AM68 °FSunny.3 mph56%29.95 "Hg10 mi
10:00 AM66 °FSunny.3 mph60%29.95 "Hg10 mi
9:30 AM64 °FSunny.3 mph64%29.95 "Hg10 mi
9:00 AM61 °FSunny.3 mph72%29.95 "Hg10 mi
8:30 AM59 °FSunny.3 mph77%29.98 "Hg10 mi
8:00 AM57 °FSunny.1 mph77%29.95 "Hg10 mi
7:30 AM57 °FSunny.3 mph77%29.95 "Hg10 mi
7:00 AM57 °FClear.3 mph72%29.95 "Hg10 mi
Weather by CustomWeather, © 2015

See weather overviewHow to use our weather pages